Regional Weather Roundup
Issued by NWS

Home | Current Version | Previous Version | Graphics & Text | Print | Product List | Glossary On
Versions: 1 2 3 4 5 6 7 8 9 10 11 12 13 14 15 16 17 18 19 20 21 22 23 24 25 26 27 28 29 30 31 32 33 34 35 36 37 38 39 40 41 42 43 44 45 46 47 48 49 50
355
ASUS43 KFSD 261310
RWRSD

WEATHER ROUNDUP FOR SOUTH DAKOTA
NATIONAL WEATHER SERVICE SIOUX FALLS SD
800 AM CDT WED APR 26 2017

NOTE: "FAIR" INDICATES FEW OR NO CLOUDS BELOW 12,000 FEET WITH NO
SIGNIFICANT WEATHER AND/OR OBSTRUCTIONS TO VISIBILITY.


SDZ001>005-009-010-012>017-261400-
NORTHWEST AND NORTH CENTRAL SOUTH DAKOTA

CITY           SKY/WX    TMP DP  RH WIND       PRES   REMARKS
BUFFALO          N/A     31  25  78 NW7       29.80S WCI  24
FAITH            N/A     31  27  85 N15       29.85S WCI  20
MOBRIDGE       CLOUDY    34  24  67 N21G28    29.80R WCI  22
$$

SDZ012>016-024>037-041>051-057-063-072>074-261400-
SOUTHWEST AND SOUTH CENTRAL SOUTH DAKOTA

CITY           SKY/WX    TMP DP  RH WIND       PRES   REMARKS
RAPID CTY ARPT CLOUDY    28  23  81 NW16      29.87R WCI  16
PIERRE         CLOUDY    32  26  78 NW17      29.82R WCI  21
CUSTER         FOG       21  18  88 S5        29.76S VSB 1/4 WCI  15
ELLSWORTH AFB  CLOUDY    28  25  86 NW15      29.86  WCI  17
PHILIP         CLOUDY    32  28  85 N12       29.87R WCI  23
PINE RIDGE     CLOUDY    29  25  85 N7        29.87R WCI  22
SPEARFISH      FAIR      23  21  93 NW5       29.86R WCI  17
WINNER         CLOUDY    34  30  85 NW21      29.81R WCI  22
$$

SDZ004>011-016>023-039-040-261400-
NORTHEAST SOUTH DAKOTA

CITY           SKY/WX    TMP DP  RH WIND       PRES   REMARKS
ABERDEEN       LGT SNOW  30  26  85 N18G24    29.78R FOG     WCI  18
WATERTOWN      FLURRIES  29  27  92 N18       29.67R WCI  16
BROOKINGS      CLOUDY    31  30  96 N17       29.64F WCI  19
SISSETON         N/A     30  29  96 N20G26    29.70S WCI  17
$$

SDZ017-020-022-023-036>040-048>070-261400-
SOUTHEAST SOUTH DAKOTA

CITY           SKY/WX    TMP DP  RH WIND       PRES   REMARKS
SIOUX FALLS    LGT RAIN  35  34  96 NW15      29.65S WCI  25
HURON          CLOUDY    31  29  92 N17       29.76S WCI  19
CHAMBERLAIN    CLOUDY    35  30  84 W14       29.80R WCI  25
MITCHELL       CLOUDY    33  30  88 NW18      29.75R WCI  22
YANKTON        CLOUDY    34  28  80 NW24G31   29.70S WCI  21
$$

ABBREVIATIONS USED IN REMARKS
   TC - TEMPERATURE IN CELSIUS
  WCI - WIND CHILL INDEX
   HX - HEAT INDEX
  VSB - VISIBILITY





USA.gov is the U.S. government's official web portal to all federal, state and local government web resources and services.